Regional Weather Roundup
Issued by NWS

Home | Current Version | Previous Version | Graphics & Text | Print | Product List | Glossary On
Versions: 1 2 3 4 5 6 7 8 9 10 11 12 13 14 15 16 17 18 19 20 21 22 23 24 25 26 27 28 29 30 31 32 33 34 35 36 37 38 39 40 41 42 43 44 45 46 47 48 49 50
000
ASUS44 KMEG 231010
RWRTN
TENNESSEE HOURLY STATE WEATHER ROUNDUP
NATIONAL WEATHER SERVICE MEMPHIS TN
500 AM CDT FRI JUN 23 2017

TNZ002-004-019-021-049-052-054-088>092-231100-
WEST TENNESSEE

CITY           SKY/WX    TMP DP  RH WIND       PRES   REMARKS
MEMPHIS INTL   LGT RAIN  76  74  93 S14       29.69S
NWS MEMPHIS      N/A     77 N/A N/A MISG        N/A
JACKSON        CLOUDY    77  74  90 S12G22    29.76S
SOMERVILLE     CLOUDY    77  73  88 S13G20    29.73S
COVINGTON      CLOUDY    77  73  88 S13G21    29.71S
UNION CITY     MOCLDY    77  73  88 S17       29.72F
BOLIVAR        CLOUDY    77  73  88 SE13G22   29.76S
PARIS          MOCLDY    75  72  88 S13       29.76S
HUNTINGDON     CLOUDY    77  73  88 S13       29.76S
LEXINGTON      CLOUDY    77  72  83 S9G15     29.80R
SELMER         CLOUDY    77  72  83 S9G16     29.80S
SAVANNAH       CLOUDY    79  72  78 S10G17    29.81R
$$

TNZ008-025-027-028-033-062-065-066-231100-
NORTH MIDDLE TENNESSEE

CITY           SKY/WX    TMP DP  RH WIND       PRES   REMARKS
NASHVILLE      PTCLDY    77  71  82 S13       29.84F
PORTLAND       MOCLDY    75  72  88 S13       29.83F
CLARKSVILLE    PTCLDY    76  71  85 S9        29.79F
SMYRNA         CLEAR     75  72  90 SE7       29.85F
COOKEVILLE     CLOUDY    73  72  94 S6        29.89F
GALLATIN       CLOUDY    75  73  94 S6        29.86F
CROSSVILLE     CLOUDY    70  68  93 S8        29.97R
$$

TNZ061-075-076-078-094-096-097-231100-
SOUTH MIDDLE TENNESSEE

CITY           SKY/WX    TMP DP  RH WIND       PRES   REMARKS
FAYETTEVILLE   CLOUDY    75  73  94 S12G17    29.89S
TULLAHOMA        N/A     72  72 100 S9        29.91S
WINCHESTER     CLOUDY    73  72  94 S7          N/A
MCMINNVILLE    CLOUDY    73  73 100 S7        29.91S
COLUMBIA       CLOUDY    77  73  88 S13       29.83R
SHELBYVILLE    CLOUDY    75  72  88 S9        29.88R
$$

TNZ017-018-042-046-047-231100-
NORTHEAST TENNESSEE

CITY           SKY/WX    TMP DP  RH WIND       PRES   REMARKS
TRI CITIES     CLOUDY    70  69  97 CALM      29.98R
ELIZABETHTON   CLOUDY    70  68  94 CALM      29.99R
$$

TNZ012-013-036-069-073-074-231100-
CENTRAL EAST TENNESSEE

CITY           SKY/WX    TMP DP  RH WIND       PRES   REMARKS
KNOXVILLE      CLOUDY    74  68  81 SW10      29.94R
OAK RIDGE      LGT RAIN  73  70  90 VRB5      29.95S
DOWNTOWN KNOXV MOCLDY    73  72  94 CALM      29.93S
GATLINBURG     PTCLDY    70  70 100 CALM      29.94S
MORRISTOWN     CLOUDY    72  70  94 CALM      29.96R
JACKSBORO        N/A     73  70  88 S9G16     29.97S
$$

TNZ083-085-099-231100-
SOUTHEAST TENNESSEE

CITY           SKY/WX    TMP DP  RH WIND       PRES   REMARKS
CHATTANOOGA    LGT RAIN  75  72  90 SE7       29.94S FOG
$$

SKY/WX REPORTED AS FAIR MEANS FEW OR NO CLOUDS BELOW
12 THOUSAND FEET.





USA.gov is the U.S. government's official web portal to all federal, state and local government web resources and services.